| time (UTC) | temp F | wind direction | speed knots | gust knots | rain 1hr in | rain 24hr in | rain mn in | humidity % | barometer mb |
| 20260510204229 | 66 | 100 | 2.6 | 7.8 | 0.00 | 0.00 | 0.00 | 46 | 1021.3 |
| 20260510203726 | 66 | 63 | 1.7 | 3.5 | 0.00 | 0.00 | 0.00 | 45 | 1021.3 |
| 20260510203223 | 65 | 69 | 1.7 | 7.8 | 0.00 | 0.00 | 0.00 | 45 | 1021.5 |
| 20260510202718 | 65 | 99 | 4.3 | 7.0 | 0.00 | 0.00 | 0.00 | 44 | 1021.6 |
| 20260510202213 | 65 | 61 | 4.3 | 6.1 | 0.00 | 0.00 | 0.00 | 43 | 1021.5 |
| 20260510201711 | 65 | 92 | 1.7 | 3.5 | 0.00 | 0.00 | 0.00 | 46 | 1021.6 |
| 20260510201207 | 64 | 72 | 1.7 | 3.5 | 0.00 | 0.00 | 0.00 | 47 | 1021.8 |
| 20260510200704 | 65 | 129 | 1.7 | 2.6 | 0.00 | 0.00 | 0.00 | 45 | 1021.5 |
| 20260510200202 | 65 | 107 | 4.3 | 7.8 | 0.00 | 0.00 | 0.00 | 43 | 1021.8 |
| 20260510195659 | 66 | 111 | 3.5 | 7.0 | 0.00 | 0.00 | 0.00 | 44 | 1021.8 |
| 20260510195155 | 65 | 55 | 1.7 | 7.0 | 0.00 | 0.00 | 0.00 | 43 | 1021.8 |
| 20260510194654 | 65 | 87 | 3.5 | 5.2 | 0.00 | 0.00 | 0.00 | 44 | 1021.6 |
| 20260510194151 | 66 | 134 | 4.3 | 7.0 | 0.00 | 0.00 | 0.00 | 44 | 1021.8 |
| 20260510193646 | 66 | 79 | 0.9 | 7.0 | 0.00 | 0.00 | 0.00 | 42 | 1022.1 |
| 20260510193142 | 66 | 60 | 3.5 | 6.1 | 0.00 | 0.00 | 0.00 | 43 | 1021.9 |
| 20260510192637 | 64 | 159 | 1.7 | 7.0 | 0.00 | 0.00 | 0.00 | 44 | 1022.0 |
| 20260510192133 | 66 | 18 | 2.6 | 6.1 | 0.00 | 0.00 | 0.00 | 41 | 1021.8 |
| 20260510191630 | 65 | 23 | 1.7 | 7.0 | 0.00 | 0.00 | 0.00 | 43 | 1021.8 |
| 20260510191126 | 65 | 37 | 1.7 | 3.5 | 0.00 | 0.00 | 0.00 | 45 | 1022.0 |
| 20260510190623 | 65 | 71 | 0.9 | 3.5 | 0.00 | 0.00 | 0.00 | 46 | 1022.0 |
| 20260510190121 | 65 | 50 | 1.7 | 3.5 | 0.00 | 0.00 | 0.00 | 47 | 1021.8 |
| 20260510185617 | 65 | 30 | 1.7 | 8.7 | 0.00 | 0.00 | 0.00 | 48 | 1021.8 |
| 20260510185115 | 64 | 97 | 4.3 | 8.7 | 0.00 | 0.00 | 0.00 | 47 | 1021.8 |
| 20260510184612 | 64 | 55 | 3.5 | 6.1 | 0.00 | 0.00 | 0.00 | 49 | 1021.6 |
| 20260510184108 | 63 | 55 | 1.7 | 2.6 | 0.00 | 0.00 | 0.00 | 47 | 1021.9 |
| 20260510183603 | 63 | 29 | 0.9 | 7.0 | 0.00 | 0.00 | 0.00 | 47 | 1021.9 |
| 20260510183058 | 63 | 112 | 7.0 | 7.8 | 0.00 | 0.00 | 0.00 | 43 | 1022.0 |
| 20260510182555 | 64 | 116 | 4.3 | 6.1 | 0.00 | 0.00 | 0.00 | 44 | 1021.9 |
| 20260510182050 | 63 | 126 | 6.1 | 8.7 | 0.00 | 0.00 | 0.00 | 46 | 1021.9 |
| 20260510181548 | 63 | 71 | 1.7 | 6.1 | 0.00 | 0.00 | 0.00 | 45 | 1022.0 |
| 20260510181044 | 62 | 100 | 3.5 | 6.1 | 0.00 | 0.00 | 0.00 | 50 | 1022.0 |
| 20260510180541 | 61 | 58 | 1.7 | 8.7 | 0.00 | 0.00 | 0.00 | 47 | 1022.1 |
| 20260510180038 | 61 | 35 | 4.3 | 6.1 | 0.00 | 0.00 | 0.00 | 45 | 1021.9 |
| 20260510175533 | 61 | 98 | 2.6 | 6.1 | 0.00 | 0.00 | 0.00 | 43 | 1021.6 |
| 20260510175030 | 62 | 106 | 1.7 | 5.2 | 0.00 | 0.00 | 0.00 | 47 | 1021.5 |
| 20260510174528 | 62 | 95 | 4.3 | 5.2 | 0.00 | 0.00 | 0.00 | 44 | 1021.4 |
| 20260510174025 | 62 | 75 | 3.5 | 6.1 | 0.00 | 0.00 | 0.00 | 45 | 1021.3 |
| 20260510173520 | 62 | 63 | 0.9 | 7.8 | 0.00 | 0.00 | 0.00 | 45 | 1021.4 |
| 20260510173017 | 62 | 89 | 5.2 | 9.6 | 0.00 | 0.00 | 0.00 | 44 | 1021.4 |
| 20260510172513 | 62 | 85 | 0.9 | 7.0 | 0.00 | 0.00 | 0.00 | 47 | 1021.2 |
| 20260510172009 | 63 | 99 | 1.7 | 9.6 | 0.00 | 0.00 | 0.00 | 44 | 1021.3 |
| 20260510171506 | 62 | 85 | 1.7 | 13.0 | 0.00 | 0.00 | 0.00 | 43 | 1021.2 |
| 20260510171003 | 63 | 11 | 4.3 | 13.9 | 0.00 | 0.00 | 0.00 | 42 | 1021.2 |
| 20260510170459 | 64 | 138 | 0.9 | 5.2 | 0.00 | 0.00 | 0.00 | 44 | 1021.1 |
| 20260510165955 | 64 | 104 | 2.6 | 6.1 | 0.00 | 0.00 | 0.00 | 44 | 1021.1 |
| 20260510165452 | 64 | 66 | 2.6 | 7.8 | 0.00 | 0.00 | 0.00 | 42 | 1021.2 |
| 20260510164948 | 65 | 134 | 5.2 | 13.0 | 0.00 | 0.00 | 0.00 | 40 | 1021.1 |
| 20260510164445 | 65 | 91 | 5.2 | 12.2 | 0.00 | 0.00 | 0.00 | 40 | 1021.1 |
| 20260510163941 | 65 | 75 | 6.1 | 13.0 | 0.00 | 0.00 | 0.00 | 39 | 1021.0 |
| 20260510163437 | 63 | 60 | 2.6 | 12.2 | 0.00 | 0.00 | 0.00 | 40 | 1021.0 |
| 20260510162931 | 64 | 65 | 1.7 | 9.6 | 0.00 | 0.00 | 0.00 | 41 | 1020.7 |
| 20260510162429 | 66 | 47 | 3.5 | 12.2 | 0.00 | 0.00 | 0.00 | 39 | 1020.8 |
| 20260510161925 | 65 | 209 | 3.5 | 12.2 | 0.00 | 0.00 | 0.00 | 41 | 1020.7 |
| 20260510161420 | 65 | 59 | 6.1 | 9.6 | 0.00 | 0.00 | 0.00 | 41 | 1020.7 |
| 20260510160918 | 64 | 134 | 2.6 | 9.6 | 0.00 | 0.00 | 0.00 | 43 | 1020.7 |
| 20260510160414 | 64 | 147 | 5.2 | 11.3 | 0.00 | 0.00 | 0.00 | 44 | 1020.7 |
| 20260510155908 | 64 | 91 | 3.5 | 12.2 | 0.00 | 0.00 | 0.00 | 43 | 1020.6 |
| 20260510155405 | 64 | 82 | 3.5 | 9.6 | 0.00 | 0.00 | 0.00 | 43 | 1020.9 |
| 20260510154901 | 63 | 176 | 3.5 | 12.2 | 0.00 | 0.00 | 0.00 | 43 | 1020.8 |
| 20260510154357 | 63 | 110 | 9.6 | 15.6 | 0.00 | 0.00 | 0.00 | 41 | 1020.7 |
| 20260510153851 | 63 | 65 | 5.2 | 11.3 | 0.00 | 0.00 | 0.00 | 44 | 1020.7 |
| 20260510153347 | 63 | 39 | 7.8 | 13.0 | 0.00 | 0.00 | 0.00 | 44 | 1020.6 |
| 20260510152844 | 63 | 97 | 3.5 | 7.0 | 0.00 | 0.00 | 0.00 | 47 | 1020.8 |
| 20260510152342 | 62 | 88 | 7.8 | 13.0 | 0.00 | 0.00 | 0.00 | 46 | 1020.8 |
| 20260510151838 | 62 | 22 | 4.3 | 8.7 | 0.00 | 0.00 | 0.00 | 49 | 1020.7 |
| 20260510151336 | 62 | 78 | 5.2 | 11.3 | 0.00 | 0.00 | 0.00 | 48 | 1020.8 |
| 20260510150831 | 62 | 55 | 1.7 | 7.8 | 0.00 | 0.00 | 0.00 | 52 | 1021.0 |
| 20260510150327 | 62 | 118 | 8.7 | 13.0 | 0.00 | 0.00 | 0.00 | 47 | 1020.9 |
| 20260510145824 | 61 | 81 | 1.7 | 8.7 | 0.00 | 0.00 | 0.00 | 53 | 1020.7 |
| 20260510145320 | 61 | 92 | 2.6 | 9.6 | 0.00 | 0.00 | 0.00 | 51 | 1020.9 |
| 20260510144817 | 61 | 82 | 2.6 | 5.2 | 0.00 | 0.00 | 0.00 | 52 | 1020.8 |
| 20260510144314 | 61 | 66 | 1.7 | 8.7 | 0.00 | 0.00 | 0.00 | 52 | 1020.9 |
| 20260510143813 | 61 | 98 | 3.5 | 7.8 | 0.00 | 0.00 | 0.00 | 53 | 1021.2 |
| 20260510143310 | 61 | 25 | 7.0 | 8.7 | 0.00 | 0.00 | 0.00 | 51 | 1021.1 |
| 20260510142806 | 60 | 55 | 2.6 | 7.0 | 0.00 | 0.00 | 0.00 | 54 | 1021.2 |
| 20260510142306 | 60 | 96 | 3.5 | 6.1 | 0.00 | 0.00 | 0.00 | 54 | 1021.1 |
| 20260510141801 | 60 | 110 | 3.5 | 7.8 | 0.00 | 0.00 | 0.00 | 53 | 1021.0 |
| 20260510141258 | 60 | 127 | 4.3 | 12.2 | 0.00 | 0.00 | 0.00 | 54 | 1020.7 |
| 20260510140755 | 60 | 76 | 0.9 | 6.1 | 0.00 | 0.00 | 0.00 | 53 | 1020.6 |
| 20260510140250 | 60 | 48 | 3.5 | 11.3 | 0.00 | 0.00 | 0.00 | 54 | 1020.4 |
| 20260510135744 | 60 | 105 | 4.3 | 7.8 | 0.00 | 0.00 | 0.00 | 54 | 1020.1 |
| 20260510135240 | 60 | 104 | 3.5 | 6.1 | 0.00 | 0.00 | 0.00 | 54 | 1020.0 |
| 20260510134738 | 60 | 109 | 0.9 | 6.1 | 0.00 | 0.00 | 0.00 | 56 | 1020.3 |
| 20260510134235 | 60 | 76 | 7.8 | 8.7 | 0.00 | 0.00 | 0.00 | 54 | 1020.1 |
| 20260510133730 | 60 | 40 | 3.5 | 8.7 | 0.00 | 0.00 | 0.00 | 54 | 1020.0 |
| 20260510133226 | 60 | 62 | 6.1 | 8.7 | 0.00 | 0.00 | 0.00 | 54 | 1019.8 |
| 20260510132722 | 59 | 118 | 1.7 | 5.2 | 0.00 | 0.00 | 0.00 | 56 | 1019.9 |
| 20260510132220 | 59 | 55 | 4.3 | 6.1 | 0.00 | 0.00 | 0.00 | 57 | 1019.9 |
| 20260510131717 | 59 | 60 | 1.7 | 9.6 | 0.00 | 0.00 | 0.00 | 57 | 1019.7 |
| 20260510131215 | 59 | 87 | 2.6 | 6.1 | 0.00 | 0.00 | 0.00 | 58 | 1019.7 |
| 20260510130711 | 59 | 112 | 1.7 | 8.7 | 0.00 | 0.00 | 0.00 | 60 | 1019.4 |
| 20260510130209 | 59 | 96 | 3.5 | 7.0 | 0.00 | 0.00 | 0.00 | 59 | 1019.5 |
| 20260510125704 | 59 | 105 | 1.7 | 5.2 | 0.00 | 0.00 | 0.00 | 59 | 1019.0 |
| 20260510125200 | 59 | 80 | 1.7 | 7.0 | 0.00 | 0.00 | 0.00 | 60 | 1019.2 |
| 20260510124652 | 59 | 104 | 1.7 | 7.0 | 0.00 | 0.00 | 0.00 | 58 | 1018.7 |
| 20260510124149 | 59 | 62 | 2.6 | 5.2 | 0.00 | 0.00 | 0.00 | 60 | 1018.6 |
| 20260510123644 | 59 | 64 | 2.6 | 7.0 | 0.00 | 0.00 | 0.00 | 60 | 1018.4 |
| 20260510123140 | 58 | 118 | 1.7 | 7.0 | 0.00 | 0.00 | 0.00 | 61 | 1018.6 |
| 20260510122637 | 58 | 98 | 5.2 | 7.0 | 0.00 | 0.00 | 0.00 | 59 | 1018.2 |
| 20260510122133 | 58 | 57 | 4.3 | 7.0 | 0.00 | 0.00 | 0.00 | 59 | 1018.4 |
| 20260510121630 | 58 | 113 | 1.7 | 7.8 | 0.00 | 0.00 | 0.00 | 61 | 1018.3 |
| 20260510121127 | 58 | 81 | 3.5 | 13.0 | 0.00 | 0.00 | 0.00 | 61 | 1018.6 |
| 20260510120625 | 58 | 92 | 0.9 | 7.8 | 0.00 | 0.00 | 0.00 | 65 | 1018.3 |
| 20260510120120 | 58 | 78 | 3.5 | 8.7 | 0.00 | 0.00 | 0.00 | 63 | 1018.3 |
| 20260510115617 | 58 | 107 | 1.7 | 3.5 | 0.00 | 0.00 | 0.00 | 64 | 1018.3 |
| 20260510115115 | 58 | 118 | 1.7 | 6.1 | 0.00 | 0.00 | 0.00 | 65 | 1018.4 |
| 20260510114610 | 58 | 70 | 1.7 | 7.8 | 0.00 | 0.00 | 0.00 | 64 | 1018.2 |
| 20260510114106 | 58 | 101 | 2.6 | 7.0 | 0.00 | 0.00 | 0.00 | 65 | 1017.9 |
| 20260510113602 | 58 | 118 | 1.7 | 3.5 | 0.00 | 0.00 | 0.00 | 67 | 1017.9 |
| 20260510113059 | 58 | 108 | 3.5 | 9.6 | 0.00 | 0.00 | 0.00 | 65 | 1017.5 |
| 20260510112556 | 58 | 98 | 3.5 | 9.6 | 0.00 | 0.00 | 0.00 | 68 | 1017.5 |
| 20260510112052 | 58 | 46 | 7.8 | 11.3 | 0.00 | 0.00 | 0.00 | 68 | 1017.5 |
| 20260510111549 | 58 | 99 | 6.1 | 8.7 | 0.00 | 0.00 | 0.00 | 70 | 1017.7 |
| 20260510111045 | 58 | 97 | 4.3 | 6.1 | 0.00 | 0.00 | 0.00 | 73 | 1017.5 |
| 20260510110541 | 58 | 133 | 2.6 | 7.0 | 0.00 | 0.00 | 0.00 | 74 | 1017.6 |
| 20260510110037 | 58 | 67 | 2.6 | 6.1 | 0.00 | 0.00 | 0.00 | 75 | 1017.6 |
| 20260510105533 | 58 | 112 | 2.6 | 5.2 | 0.00 | 0.00 | 0.00 | 75 | 1017.6 |
| 20260510105028 | 58 | 102 | 5.2 | 7.8 | 0.00 | 0.00 | 0.00 | 74 | 1017.5 |
| 20260510104525 | 58 | 76 | 1.7 | 6.1 | 0.00 | 0.00 | 0.00 | 75 | 1017.6 |
| 20260510104021 | 59 | 101 | 0.9 | 6.1 | 0.00 | 0.00 | 0.00 | 75 | 1017.3 |
| 20260510103518 | 59 | 42 | 2.6 | 7.8 | 0.00 | 0.00 | 0.00 | 75 | 1017.3 |
| 20260510103014 | 59 | 60 | 4.3 | 7.8 | 0.00 | 0.00 | 0.00 | 75 | 1017.0 |
| 20260510102510 | 59 | 100 | 4.3 | 5.2 | 0.00 | 0.00 | 0.00 | 77 | 1017.1 |
| 20260510102007 | 59 | 119 | 1.7 | 7.8 | 0.00 | 0.00 | 0.00 | 81 | 1016.8 |
| 20260510101504 | 59 | 79 | 0.9 | 3.5 | 0.00 | 0.00 | 0.00 | 80 | 1016.8 |
| 20260510101003 | 59 | 77 | 2.6 | 3.5 | 0.00 | 0.00 | 0.00 | 79 | 1016.9 |
| 20260510100458 | 59 | 124 | 3.5 | 6.1 | 0.00 | 0.00 | 0.00 | 79 | 1016.7 |
| 20260510095955 | 59 | 96 | 3.5 | 6.1 | 0.00 | 0.00 | 0.00 | 79 | 1016.6 |
| 20260510095451 | 59 | 79 | 0.9 | 3.5 | 0.00 | 0.00 | 0.00 | 78 | 1016.6 |
| 20260510094950 | 60 | 132 | 2.6 | 5.2 | 0.00 | 0.00 | 0.00 | 76 | 1016.4 |
| 20260510094445 | 60 | 90 | 2.6 | 3.5 | 0.00 | 0.00 | 0.00 | 75 | 1016.4 |
| 20260510093941 | 60 | 68 | 1.7 | 3.5 | 0.00 | 0.00 | 0.00 | 75 | 1016.3 |
| 20260510093437 | 61 | 55 | 1.7 | 2.6 | 0.00 | 0.00 | 0.00 | 73 | 1016.3 |
| 20260510092933 | 61 | 75 | 0.9 | 2.6 | 0.00 | 0.00 | 0.00 | 73 | 1016.2 |
| 20260510092430 | 61 | 42 | 3.5 | 5.2 | 0.00 | 0.00 | 0.00 | 72 | 1015.9 |
| 20260510091924 | 61 | 48 | 1.7 | 6.1 | 0.00 | 0.00 | 0.00 | 73 | 1015.9 |
| 20260510091422 | 61 | 94 | 0.9 | 2.6 | 0.00 | 0.00 | 0.00 | 74 | 1016.0 |
| 20260510090918 | 60 | 79 | 1.7 | 3.5 | 0.00 | 0.00 | 0.00 | 74 | 1016.0 |
| 20260510090415 | 61 | 51 | 1.7 | 3.5 | 0.00 | 0.00 | 0.00 | 74 | 1015.9 |
| 20260510085911 | 61 | 94 | 0.0 | 1.7 | 0.00 | 0.00 | 0.00 | 75 | 1015.7 |
| 20260510085406 | 61 | 58 | 1.7 | 3.5 | 0.00 | 0.00 | 0.00 | 74 | 1015.8 |
| 20260510084901 | 61 | 83 | 2.6 | 3.5 | 0.00 | 0.00 | 0.00 | 75 | 1015.5 |
| 20260510084359 | 61 | 68 | 1.7 | 3.5 | 0.00 | 0.00 | 0.00 | 75 | 1015.7 |
| 20260510083856 | 61 | 107 | 0.0 | 1.7 | 0.00 | 0.00 | 0.00 | 75 | 1015.4 |
| 20260510083352 | 61 | 95 | 1.7 | 2.6 | 0.00 | 0.00 | 0.00 | 75 | 1015.3 |
| 20260510082848 | 61 | 80 | 2.6 | 2.6 | 0.00 | 0.00 | 0.00 | 74 | 1015.2 |
| 20260510082345 | 61 | 87 | 1.7 | 3.5 | 0.00 | 0.00 | 0.00 | 74 | 1015.1 |
| 20260510081844 | 62 | 78 | 1.7 | 5.2 | 0.00 | 0.00 | 0.00 | 73 | 1014.9 |
| 20260510081340 | 62 | 92 | 1.7 | 6.1 | 0.00 | 0.00 | 0.00 | 72 | 1014.8 |
| 20260510080837 | 62 | 123 | 1.7 | 2.6 | 0.00 | 0.00 | 0.00 | 71 | 1014.9 |
| 20260510080331 | 63 | 107 | 1.7 | 3.5 | 0.00 | 0.00 | 0.00 | 70 | 1014.7 |
| 20260510075828 | 63 | 94 | 0.9 | 5.2 | 0.00 | 0.00 | 0.00 | 71 | 1014.7 |
| 20260510075326 | 63 | 121 | 4.3 | 7.0 | 0.00 | 0.00 | 0.00 | 69 | 1014.7 |
| 20260510074822 | 63 | 76 | 0.9 | 3.5 | 0.00 | 0.00 | 0.00 | 69 | 1014.6 |
| 20260510074314 | 63 | 79 | 1.7 | 7.0 | 0.00 | 0.00 | 0.00 | 68 | 1014.6 |
| 20260510073809 | 63 | 108 | 2.6 | 7.0 | 0.00 | 0.00 | 0.00 | 68 | 1014.7 |
| 20260510073305 | 63 | 44 | 3.5 | 7.0 | 0.00 | 0.00 | 0.00 | 68 | 1014.6 |
| 20260510072801 | 63 | 102 | 1.7 | 5.2 | 0.00 | 0.00 | 0.00 | 69 | 1014.6 |
| 20260510072258 | 64 | 109 | 3.5 | 7.0 | 0.00 | 0.00 | 0.00 | 68 | 1014.7 |
| 20260510071754 | 64 | 98 | 3.5 | 6.1 | 0.00 | 0.00 | 0.00 | 68 | 1014.7 |
| 20260510071252 | 64 | 81 | 2.6 | 7.8 | 0.00 | 0.00 | 0.00 | 67 | 1014.8 |
| 20260510070751 | 64 | 105 | 0.9 | 5.2 | 0.00 | 0.00 | 0.00 | 68 | 1014.4 |
| 20260510070247 | 64 | 86 | 0.0 | 7.0 | 0.00 | 0.00 | 0.00 | 67 | 1014.5 |
| 20260510065747 | 65 | 150 | 4.3 | 6.1 | 0.00 | 0.00 | 0.00 | 67 | 1014.3 |
| 20260510065243 | 65 | 77 | 1.7 | 3.5 | 0.00 | 0.00 | 0.00 | 67 | 1014.4 |
| 20260510064740 | 65 | 135 | 3.5 | 7.0 | 0.00 | 0.00 | 0.00 | 67 | 1014.4 |
| 20260510064238 | 65 | 119 | 3.5 | 6.1 | 0.00 | 0.00 | 0.00 | 65 | 1014.5 |
| 20260510063734 | 65 | 92 | 1.7 | 7.0 | 0.00 | 0.00 | 0.00 | 65 | 1014.5 |
| 20260510063231 | 65 | 90 | 3.5 | 8.7 | 0.00 | 0.00 | 0.00 | 65 | 1014.5 |
| 20260510062727 | 65 | 100 | 1.7 | 5.2 | 0.00 | 0.00 | 0.00 | 64 | 1014.6 |
| 20260510062223 | 66 | 68 | 3.5 | 5.2 | 0.00 | 0.00 | 0.00 | 63 | 1014.5 |
| 20260510061719 | 66 | 99 | 2.6 | 3.5 | 0.00 | 0.00 | 0.00 | 62 | 1014.6 |
| 20260510061216 | 66 | 347 | 4.3 | 6.1 | 0.00 | 0.00 | 0.00 | 61 | 1014.5 |
| 20260510060712 | 67 | 81 | 2.6 | 6.1 | 0.00 | 0.00 | 0.00 | 60 | 1014.6 |
| 20260510060209 | 66 | 147 | 3.5 | 5.2 | 0.00 | 0.00 | 0.00 | 61 | 1014.5 |
| 20260510055706 | 67 | 125 | 1.7 | 7.8 | 0.00 | 0.00 | 0.00 | 61 | 1014.2 |
| 20260510055204 | 67 | 82 | 2.6 | 7.8 | 0.00 | 0.00 | 0.00 | 63 | 1014.2 |
| 20260510054659 | 67 | 51 | 1.7 | 5.2 | 0.00 | 0.00 | 0.00 | 63 | 1014.1 |
| 20260510054155 | 67 | 74 | 0.0 | 3.5 | 0.00 | 0.00 | 0.00 | 63 | 1014.2 |
| 20260510053654 | 67 | 81 | 1.7 | 2.6 | 0.00 | 0.00 | 0.00 | 61 | 1013.7 |
| 20260510053151 | 68 | 85 | 2.6 | 3.5 | 0.00 | 0.00 | 0.00 | 59 | 1014.0 |
| 20260510052646 | 68 | 98 | 0.9 | 5.2 | 0.00 | 0.00 | 0.00 | 59 | 1013.8 |
| 20260510052143 | 67 | 94 | 1.7 | 2.6 | 0.00 | 0.00 | 0.00 | 61 | 1014.0 |
| 20260510051639 | 68 | 69 | 0.9 | 1.7 | 0.00 | 0.00 | 0.00 | 60 | 1014.1 |
| 20260510051135 | 69 | 10 | 1.7 | 1.7 | 0.00 | 0.00 | 0.00 | 58 | 1014.3 |
| 20260510050633 | 69 | 49 | 0.0 | 0.9 | 0.00 | 0.00 | 0.00 | 57 | 1014.0 |
| 20260510050130 | 69 | 48 | 0.9 | 0.9 | 0.00 | 0.00 | 0.00 | 56 | 1014.0 |
| 20260510045627 | 69 | 45 | 0.0 | 0.9 | 0.00 | 0.00 | 0.00 | 57 | 1013.8 |
| 20260510045123 | 69 | 42 | 0.9 | 0.9 | 0.00 | 0.00 | 0.00 | 57 | 1013.6 |
| 20260510044619 | 68 | 41 | 0.9 | 0.9 | 0.00 | 0.00 | 0.00 | 58 | 1013.8 |
| 20260510044117 | 68 | 41 | 0.0 | 0.9 | 0.00 | 0.00 | 0.00 | 59 | 1013.8 |
| 20260510043613 | 69 | 353 | 0.0 | 0.0 | 0.00 | 0.00 | 0.00 | 59 | 1013.7 |
| 20260510043109 | 69 | 344 | 0.9 | 1.7 | 0.00 | 0.00 | 0.00 | 57 | 1013.6 |
| 20260510042608 | 68 | 54 | 0.9 | 0.9 | 0.00 | 0.00 | 0.00 | 58 | 1013.7 |
| 20260510042103 | 69 | 57 | 0.9 | 0.9 | 0.00 | 0.00 | 0.00 | 58 | 1013.7 |
| 20260510041600 | 68 | 59 | 0.9 | 0.9 | 0.00 | 0.00 | 0.00 | 59 | 1013.7 |
| 20260510041057 | 68 | 350 | 0.0 | 0.9 | 0.00 | 0.00 | 0.00 | 62 | 1013.5 |
| 20260510040554 | 68 | 328 | 0.9 | 0.9 | 0.00 | 0.00 | 0.00 | 60 | 1013.3 |
| 20260510040050 | 69 | 49 | 0.9 | 1.7 | 0.00 | 0.00 | 0.00 | 57 | 1013.5 |
| 20260510035547 | 70 | 74 | 0.0 | 0.9 | 0.00 | 0.00 | 0.00 | 55 | 1013.4 |
| 20260510035046 | 70 | 91 | 1.7 | 3.5 | 0.00 | 0.00 | 0.00 | 54 | 1012.9 |
| 20260510034544 | 70 | 98 | 0.9 | 2.6 | 0.00 | 0.00 | 0.00 | 55 | 1012.8 |
| 20260510034041 | 71 | 90 | 0.9 | 2.6 | 0.00 | 0.00 | 0.00 | 54 | 1013.0 |
| 20260510033537 | 71 | 94 | 0.9 | 1.7 | 0.00 | 0.00 | 0.00 | 54 | 1012.8 |
| 20260510033035 | 70 | 113 | 0.0 | 2.6 | 0.00 | 0.00 | 0.00 | 55 | 1012.8 |
| 20260510032531 | 70 | 93 | 0.0 | 1.7 | 0.00 | 0.00 | 0.00 | 56 | 1012.7 |
| 20260510032027 | 71 | 132 | 0.9 | 2.6 | 0.00 | 0.00 | 0.00 | 54 | 1012.7 |
| 20260510031522 | 71 | 112 | 0.9 | 0.9 | 0.00 | 0.00 | 0.00 | 53 | 1012.7 |
| 20260510031018 | 71 | 71 | 0.9 | 3.5 | 0.00 | 0.00 | 0.00 | 53 | 1012.9 |
| 20260510030514 | 71 | 59 | 1.7 | 3.5 | 0.00 | 0.00 | 0.00 | 55 | 1012.7 |
| 20260510030011 | 72 | 50 | 1.7 | 7.0 | 0.00 | 0.00 | 0.00 | 53 | 1012.6 |
| 20260510025508 | 72 | 51 | 2.6 | 5.2 | 0.00 | 0.00 | 0.00 | 54 | 1012.5 |
| 20260510025006 | 72 | 78 | 4.3 | 7.8 | 0.00 | 0.00 | 0.00 | 54 | 1012.7 |
| 20260510024503 | 72 | 94 | 0.9 | 6.1 | 0.00 | 0.00 | 0.00 | 55 | 1012.4 |
| 20260510023958 | 71 | 17 | 2.6 | 7.8 | 0.00 | 0.00 | 0.00 | 57 | 1012.3 |
| 20260510023454 | 70 | 69 | 6.1 | 9.6 | 0.00 | 0.00 | 0.00 | 59 | 1012.0 |
| 20260510022952 | 69 | 81 | 5.2 | 7.8 | 0.00 | 0.00 | 0.00 | 61 | 1012.0 |
| 20260510022451 | 69 | 44 | 2.6 | 6.1 | 0.00 | 0.00 | 0.00 | 66 | 1011.9 |
| 20260510021949 | 71 | 35 | 5.2 | 7.0 | 0.00 | 0.00 | 0.00 | 65 | 1011.4 |
| 20260510021448 | 71 | 255 | 0.9 | 1.7 | 0.00 | 0.00 | 0.00 | 59 | 1010.7 |
| 20260510020944 | 71 | 227 | 0.9 | 0.9 | 0.00 | 0.00 | 0.00 | 61 | 1010.8 |
| 20260510020439 | 72 | 210 | 0.9 | 1.7 | 0.00 | 0.00 | 0.00 | 59 | 1010.9 |
| 20260510015935 | 72 | 246 | 0.9 | 1.7 | 0.00 | 0.00 | 0.00 | 58 | 1010.9 |
| 20260510015431 | 72 | 223 | 0.9 | 3.5 | 0.00 | 0.00 | 0.00 | 58 | 1010.6 |
| 20260510014926 | 72 | 202 | 0.9 | 2.6 | 0.00 | 0.00 | 0.00 | 58 | 1010.5 |
| 20260510014424 | 72 | 256 | 1.7 | 1.7 | 0.00 | 0.00 | 0.00 | 59 | 1010.3 |
| 20260510013920 | 72 | 255 | 0.9 | 1.7 | 0.00 | 0.00 | 0.00 | 61 | 1010.3 |
| 20260510013415 | 72 | 178 | 1.7 | 2.6 | 0.00 | 0.00 | 0.00 | 59 | 1010.2 |
| 20260510012910 | 72 | 224 | 1.7 | 1.7 | 0.00 | 0.00 | 0.00 | 59 | 1009.9 |
| 20260510012406 | 73 | 233 | 1.7 | 1.7 | 0.00 | 0.00 | 0.00 | 60 | 1009.9 |
| 20260510011900 | 73 | 233 | 0.9 | 1.7 | 0.00 | 0.00 | 0.00 | 60 | 1009.8 |
| 20260510011356 | 72 | 228 | 1.7 | 1.7 | 0.00 | 0.00 | 0.00 | 60 | 1009.6 |
| 20260510010852 | 72 | 210 | 0.9 | 0.9 | 0.00 | 0.00 | 0.00 | 63 | 1009.6 |
| 20260510010350 | 73 | 200 | 0.9 | 0.9 | 0.00 | 0.00 | 0.00 | 62 | 1009.6 |
| 20260510005846 | 74 | 226 | 0.9 | 0.9 | 0.00 | 0.00 | 0.00 | 57 | 1009.8 |
| 20260510005343 | 74 | 237 | 1.7 | 2.6 | 0.00 | 0.00 | 0.00 | 56 | 1009.5 |
| 20260510004840 | 74 | 224 | 0.0 | 1.7 | 0.00 | 0.00 | 0.00 | 59 | 1009.7 |
| 20260510004338 | 74 | 202 | 0.0 | 0.9 | 0.00 | 0.00 | 0.00 | 63 | 1009.6 |
| 20260510003835 | 75 | 202 | 0.0 | 0.9 | 0.00 | 0.00 | 0.00 | 60 | 1009.3 |
| 20260510003332 | 76 | 202 | 0.0 | 0.9 | 0.00 | 0.00 | 0.00 | 57 | 1009.4 |
| 20260510002830 | 77 | 202 | 0.0 | 0.9 | 0.00 | 0.00 | 0.00 | 53 | 1009.3 |
| 20260510002328 | 77 | 202 | 0.0 | 0.9 | 0.00 | 0.00 | 0.00 | 53 | 1009.5 |
| 20260510001825 | 77 | 202 | 0.0 | 0.0 | 0.00 | 0.00 | 0.00 | 54 | 1009.4 |
| 20260510001323 | 77 | 202 | 0.0 | 0.0 | 0.00 | 0.00 | 0.00 | 57 | 1009.4 |
| 20260510000818 | 77 | 202 | 0.0 | 0.9 | 0.00 | 0.00 | 0.00 | 54 | 1009.3 |
| 20260510000318 | 78 | 221 | 0.9 | 0.9 | 0.00 | 0.00 | 0.00 | 49 | 1009.2 |
| 20260509235813 | 80 | 220 | 0.0 | 0.9 | 0.00 | 0.00 | 0.00 | 52 | 1009.2 |
| 20260509235309 | 79 | 221 | 0.9 | 0.9 | 0.00 | 0.00 | 0.00 | 49 | 1009.2 |
| 20260509234805 | 78 | 228 | 0.9 | 0.9 | 0.00 | 0.00 | 0.00 | 54 | 1009.2 |
| 20260509234302 | 78 | 248 | 1.7 | 1.7 | 0.00 | 0.00 | 0.00 | 48 | 1009.2 |
| 20260509233801 | 78 | 216 | 0.9 | 1.7 | 0.00 | 0.00 | 0.00 | 48 | 1009.4 |
| 20260509233258 | 79 | 218 | 0.0 | 1.7 | 0.00 | 0.00 | 0.00 | 47 | 1009.4 |
| 20260509232753 | 79 | 229 | 0.9 | 2.6 | 0.00 | 0.00 | 0.00 | 44 | 1009.3 |
| 20260509232251 | 79 | 267 | 1.7 | 3.5 | 0.00 | 0.00 | 0.00 | 44 | 1009.5 |
| 20260509231747 | 79 | 280 | 0.9 | 3.5 | 0.00 | 0.00 | 0.00 | 44 | 1009.3 |
| 20260509231244 | 79 | 258 | 1.7 | 2.6 | 0.00 | 0.00 | 0.00 | 43 | 1009.6 |
| 20260509230742 | 79 | 238 | 0.9 | 1.7 | 0.00 | 0.00 | 0.00 | 44 | 1009.4 |
| 20260509230239 | 80 | 273 | 1.7 | 2.6 | 0.00 | 0.00 | 0.00 | 43 | 1009.3 |
| 20260509225734 | 80 | 299 | 1.7 | 2.6 | 0.00 | 0.00 | 0.00 | 43 | 1009.4 |
| 20260509225230 | 80 | 300 | 1.7 | 1.7 | 0.00 | 0.00 | 0.00 | 41 | 1009.5 |
| 20260509224726 | 80 | 318 | 3.5 | 6.1 | 0.00 | 0.00 | 0.00 | 41 | 1009.3 |
| 20260509224223 | 80 | 262 | 0.9 | 5.2 | 0.00 | 0.00 | 0.00 | 42 | 1009.5 |
| 20260509223720 | 82 | 266 | 3.5 | 5.2 | 0.00 | 0.00 | 0.00 | 37 | 1009.4 |
| 20260509223217 | 82 | 284 | 5.2 | 7.0 | 0.00 | 0.00 | 0.00 | 40 | 1009.2 |
| 20260509222714 | 83 | 283 | 1.7 | 3.5 | 0.00 | 0.00 | 0.00 | 40 | 1009.2 |
| 20260509222209 | 81 | 294 | 3.5 | 5.2 | 0.00 | 0.00 | 0.00 | 38 | 1009.2 |
| 20260509221705 | 80 | 248 | 1.7 | 3.5 | 0.00 | 0.00 | 0.00 | 39 | 1009.2 |
| 20260509221201 | 80 | 287 | 2.6 | 3.5 | 0.00 | 0.00 | 0.00 | 39 | 1009.5 |
| 20260509220657 | 80 | 290 | 2.6 | 3.5 | 0.00 | 0.00 | 0.00 | 42 | 1009.3 |
| 20260509220148 | 80 | 240 | 2.6 | 6.1 | 0.00 | 0.00 | 0.00 | 40 | 1009.1 |
| 20260509215644 | 80 | 324 | 3.5 | 7.0 | 0.00 | 0.00 | 0.00 | 40 | 1009.2 |
| 20260509215141 | 80 | 336 | 4.3 | 7.0 | 0.00 | 0.00 | 0.00 | 41 | 1009.4 |
| 20260509214638 | 81 | 300 | 4.3 | 9.6 | 0.00 | 0.00 | 0.00 | 38 | 1009.4 |
| 20260509214135 | 81 | 321 | 5.2 | 9.6 | 0.00 | 0.00 | 0.00 | 36 | 1009.3 |
| 20260509213631 | 81 | 312 | 7.0 | 7.8 | 0.00 | 0.00 | 0.00 | 36 | 1009.3 |
| 20260509213127 | 81 | 323 | 5.2 | 6.1 | 0.00 | 0.00 | 0.00 | 38 | 1009.4 |
| 20260509212625 | 82 | 256 | 4.3 | 6.1 | 0.00 | 0.00 | 0.00 | 38 | 1009.5 |
| 20260509212122 | 81 | 282 | 5.2 | 7.8 | 0.00 | 0.00 | 0.00 | 40 | 1009.3 |
| 20260509211618 | 82 | 312 | 6.1 | 7.8 | 0.00 | 0.00 | 0.00 | 39 | 1009.4 |
| 20260509211114 | 81 | 321 | 4.3 | 11.3 | 0.00 | 0.00 | 0.00 | 36 | 1009.6 |
| 20260509210611 | 81 | 287 | 6.1 | 9.6 | 0.00 | 0.00 | 0.00 | 39 | 1009.7 |
| 20260509210108 | 81 | 278 | 3.5 | 8.7 | 0.00 | 0.00 | 0.00 | 40 | 1009.7 |
| 20260509205602 | 81 | 290 | 0.9 | 7.0 | 0.00 | 0.00 | 0.00 | 40 | 1009.8 |
| 20260509205057 | 82 | 320 | 6.1 | 8.7 | 0.00 | 0.00 | 0.00 | 40 | 1009.8 |
| 20260509204554 | 81 | 265 | 4.3 | 11.3 | 0.00 | 0.00 | 0.00 | 41 | 1009.9 |